sat.trackr.live / text

‹ back to catalog

STARLINK-36401

NORAD 67696 · 2026-025D

PAYLOAD ACTIVE UNKNOWN

§ Identity

Operator
Country
US
Launch date
2026-02-07
Launch site
AFWTR
Launch vehicle
Mass (kg)
RCS (m²)

Purposes: comms

External: N2YO · Heavens-Above · Gunter

§ Orbital elements

Epoch: 2026-05-25T00:48:29.409408Z

Period
93.91 min
Inclination
97.2839°
Eccentricity
0.0000715
Mean motion
15.33448792 rev/d
Perigee alt
465.0 km
Apogee alt
466.0 km
Semi-major
6,843.7 km
B*
5.8273e-4
RAAN
256.6667°
Arg perigee
95.4708°
Mean anomaly
264.6617°
Rev number
1,771

§ Raw data

STARLINK-364011 67696U 26025D   26145.03367372  .00018787  00000+0  58273-3 0  99962 67696  97.2839 256.6667 0000715  95.4708 264.6617 15.33448792 17712

JSON: /api/v1/satellites/67696 · /tle

For live sub-satellite position, see the globe view (requires WebGL).

§ Visibility from observer

Set your observer location to see the next 7 days of passes ≥ 10°. The values pass through the URL so the page stays shareable.

No JS? Fill the form by hand. The geolocation button needs JavaScript.